JR2LGW-13 Weather Reports


Display with metric or nautical units.
time (UTC)temp
F
wind
direction
speed
MPH
gust
MPH
rain 1hr
in
rain 24hr
in
rain mn
in
humidity
%
barometer
mb
20190524084646 79 217 9.0 14.0 0.00 0.00 0.00 58 1009.2
20190524084145 78 225 8.0 9.0 0.00 0.00 0.00 60 1009.1
20190524083645 79 222 12.0 16.0 0.00 0.00 0.00 60 1009.1
20190524083145 80 227 10.0 12.0 0.00 0.00 0.00 55 1009.0
20190524082644 81 224 13.0 16.0 0.00 0.00 0.00 50 1008.9
20190524082144 82 225 9.0 12.0 0.00 0.00 0.00 48 1008.9
20190524081644 82 226 10.0 16.0 0.00 0.00 0.00 47 1008.8
20190524081145 82 227 14.0 18.0 0.00 0.00 0.00 44 1008.8
20190524080645 83 231 13.0 20.0 0.00 0.00 0.00 43 1008.7
20190524080145 83 234 14.0 16.0 0.00 0.00 0.00 42 1008.7
20190524075644 83 228 14.0 20.0 0.00 0.00 0.00 43 1008.7
20190524075144 83 240 12.0 18.0 0.00 0.00 0.00 44 1008.7
20190524074644 83 245 13.0 16.0 0.00 0.00 0.00 48 1008.7
20190524074144 84 227 9.0 16.0 0.00 0.00 0.00 50 1008.6
20190524073644 86 234 16.0 18.0 0.00 0.00 0.00 36 1008.4
20190524073144 87 241 14.0 20.0 0.00 0.00 0.00 30 1008.4
20190524072643 87 244 13.0 14.0 0.00 0.00 0.00 29 1008.4
20190524072143 87 259 14.0 17.0 0.00 0.00 0.00 30 1008.4
20190524071645 87 256 15.0 21.0 0.00 0.00 0.00 28 1008.4
20190524071144 87 254 12.0 15.0 0.00 0.00 0.00 32 1008.4
20190524070644 87 255 13.0 15.0 0.00 0.00 0.00 31 1008.2
20190524070144 87 255 10.0 12.0 0.00 0.00 0.00 30 1008.2
20190524065643 87 242 17.0 20.0 0.00 0.00 0.00 29 1008.2
20190524065150 87 247 17.0 26.0 0.00 0.00 0.00 29 1008.2
20190524064317 87 243 14.0 20.0 0.00 0.00 0.00 31 1008.1
20190524063817 87 252 13.0 15.0 0.00 0.00 0.00 32 1008.1
20190524063317 87 254 15.0 20.0 0.00 0.00 0.00 31 1008.1
20190524062817 87 231 14.0 20.0 0.00 0.00 0.00 30 1008.0
20190524062316 87 243 13.0 21.0 0.00 0.00 0.00 30 1008.2
20190524061816 87 266 13.0 16.0 0.00 0.00 0.00 29 1008.1
20190524061316 87 272 12.0 26.0 0.00 0.00 0.00 30 1008.2
20190524060818 87 265 16.0 18.0 0.00 0.00 0.00 28 1008.3
20190524060318 87 256 12.0 20.0 0.00 0.00 0.00 30 1008.2
20190524055818 87 245 17.0 20.0 0.00 0.00 0.00 29 1008.2
20190524055317 87 268 12.0 16.0 0.00 0.00 0.00 28 1008.2
20190524054817 87 237 15.0 18.0 0.00 0.00 0.00 31 1008.3
20190524054317 87 246 15.0 20.0 0.00 0.00 0.00 30 1008.4
20190524053817 87 265 13.0 16.0 0.00 0.00 0.00 30 1008.5
20190524053317 87 249 13.0 17.0 0.00 0.00 0.00 32 1008.4
20190524052818 87 260 13.0 14.0 0.00 0.00 0.00 32 1008.5
20190524052317 87 260 13.0 20.0 0.00 0.00 0.00 31 1008.6
20190524051817 87 265 13.0 15.0 0.00 0.00 0.00 31 1008.4
20190524051317 86 251 14.0 17.0 0.00 0.00 0.00 32 1008.5
20190524050817 87 250 14.0 15.0 0.00 0.00 0.00 32 1008.6
20190524050317 87 239 15.0 20.0 0.00 0.00 0.00 32 1008.6
20190524045817 87 255 12.0 23.0 0.00 0.00 0.00 30 1008.6
20190524045316 86 245 10.0 12.0 0.00 0.00 0.00 29 1008.6
20190524044816 87 252 13.0 20.0 0.00 0.00 0.00 33 1008.7
20190524044316 86 254 12.0 17.0 0.00 0.00 0.00 30 1008.7
20190524043818 87 249 12.0 16.0 0.00 0.00 0.00 32 1008.8
20190524043317 86 247 12.0 15.0 0.00 0.00 0.00 32 1008.8
20190524042817 86 256 13.0 16.0 0.00 0.00 0.00 30 1008.9
20190524042316 86 274 9.0 12.0 0.00 0.00 0.00 30 1008.9
20190524041816 86 257 12.0 20.0 0.00 0.00 0.00 31 1008.9
20190524041316 86 266 12.0 15.0 0.00 0.00 0.00 29 1009.0
20190524040817 86 246 12.0 16.0 0.00 0.00 0.00 32 1008.9
20190524040317 86 250 14.0 18.0 0.00 0.00 0.00 33 1009.0
20190524035817 85 257 13.0 17.0 0.00 0.00 0.00 31 1009.1
20190524035316 85 272 13.0 16.0 0.00 0.00 0.00 32 1009.2
20190524034816 85 264 7.0 13.0 0.00 0.00 0.00 33 1009.2
20190524034316 85 257 10.0 12.0 0.00 0.00 0.00 33 1009.2
20190524033818 85 268 13.0 16.0 0.00 0.00 0.00 31 1009.2
20190524033317 85 250 10.0 16.0 0.00 0.00 0.00 32 1009.1
20190524032818 85 271 9.0 13.0 0.00 0.00 0.00 35 1009.2
20190524032318 85 257 9.0 12.0 0.00 0.00 0.00 32 1009.2
20190524031817 85 247 12.0 18.0 0.00 0.00 0.00 33 1009.2
20190524031317 84 262 9.0 12.0 0.00 0.00 0.00 31 1009.4
20190524030817 84 300 7.0 13.0 0.00 0.00 0.00 33 1009.3
20190524030317 84 292 13.0 17.0 0.00 0.00 0.00 33 1009.5
20190524025817 84 273 13.0 14.0 0.00 0.00 0.00 34 1009.5
20190524025317 84 301 8.0 12.0 0.00 0.00 0.00 34 1009.5
20190524024816 83 232 9.0 13.0 0.00 0.00 0.00 50 1009.5
20190524024317 82 232 9.0 16.0 0.00 0.00 0.00 45 1009.5
20190524023817 82 215 9.0 12.0 0.00 0.00 0.00 46 1009.5
20190524023317 82 222 10.0 14.0 0.00 0.00 0.00 49 1009.7
20190524022817 82 216 10.0 12.0 0.00 0.00 0.00 47 1009.8
20190524022316 82 225 9.0 12.0 0.00 0.00 0.00 48 1009.8
20190524021816 81 232 10.0 14.0 0.00 0.00 0.00 49 1009.9
20190524021316 82 234 14.0 20.0 0.00 0.00 0.00 47 1009.9
20190524020818 82 226 13.0 18.0 0.00 0.00 0.00 47 1009.9
20190524020318 82 235 13.0 18.0 0.00 0.00 0.00 45 1010.0
20190524015817 82 255 8.0 12.0 0.00 0.00 0.00 39 1010.0
20190524015316 83 257 9.0 10.0 0.00 0.00 0.00 39 1010.0
20190524014816 82 235 9.0 12.0 0.00 0.00 0.00 41 1010.1
20190524014316 83 272 8.0 12.0 0.00 0.00 0.00 42 1010.1
20190524013818 82 239 10.0 12.0 0.00 0.00 0.00 44 1010.1
20190524013318 82 247 7.0 10.0 0.00 0.00 0.00 46 1010.2
20190524012818 82 235 7.0 10.0 0.00 0.00 0.00 48 1010.2
20190524012317 82 218 2.0 6.0 0.00 0.00 0.00 50 1010.3
20190524011817 81 213 3.0 7.0 0.00 0.00 0.00 48 1010.3
20190524011317 81 202 5.0 6.0 0.00 0.00 0.00 51 1010.4
20190524010817 81 213 3.0 5.0 0.00 0.00 0.00 52 1010.4
20190524010318 80 219 6.0 7.0 0.00 0.00 0.00 49 1010.4
20190524005818 80 213 3.0 3.0 0.00 0.00 0.00 48 1010.5
20190524005316 79 218 3.0 6.0 0.00 0.00 0.00 47 1010.5
20190524004816 79 218 5.0 8.0 0.00 0.00 0.00 49 1010.5
20190524004316 79 204 2.0 3.0 0.00 0.00 0.00 49 1010.6
20190524003818 78 224 5.0 7.0 0.00 0.00 0.00 52 1010.6
20190524003318 78 220 3.0 8.0 0.00 0.00 0.00 54 1010.7
20190524002818 78 227 5.0 5.0 0.00 0.00 0.00 51 1010.7
20190524002318 77 211 3.0 6.0 0.00 0.00 0.00 54 1010.7
20190524001817 77 232 5.0 7.0 0.00 0.00 0.00 55 1010.8
20190524001317 77 228 5.0 8.0 0.00 0.00 0.00 56 1010.8
20190524000818 77 237 7.0 9.0 0.00 0.00 0.00 55 1010.9
20190524000318 76 266 5.0 8.0 0.00 0.00 0.00 51 1011.0
20190523235818 76 246 5.0 9.0 0.00 0.00 0.00 53 1011.0
20190523235318 75 243 6.0 5.0 0.00 0.00 0.00 54 1011.0
20190523234817 75 231 7.0 10.0 0.00 0.00 0.00 54 1011.1
20190523234317 74 218 5.0 5.0 0.00 0.00 0.00 57 1011.0
20190523233817 73 227 5.0 6.0 0.00 0.00 0.00 57 1011.0
20190523233317 73 248 3.0 3.0 0.00 0.00 0.00 59 1011.0
20190523232817 72 233 3.0 6.0 0.00 0.00 0.00 58 1011.0
20190523232317 72 242 5.0 7.0 0.00 0.00 0.00 60 1011.0
20190523231816 71 241 3.0 5.0 0.00 0.00 0.00 60 1011.1
20190523231317 71 267 1.0 2.0 0.00 0.00 0.00 60 1011.1
20190523230817 70 267 2.0 3.0 0.00 0.00 0.00 62 1011.1
20190523230317 70 359 1.0 2.0 0.00 0.00 0.00 62 1011.0
20190523225817 69 359 1.0 1.0 0.00 0.00 0.00 62 1011.1
20190523225317 69 359 1.0 2.0 0.00 0.00 0.00 64 1011.1
20190523224816 68 359 1.0 2.0 0.00 0.00 0.00 63 1011.1
20190523224316 68 359 1.0 2.0 0.00 0.00 0.00 62 1011.1
20190523223818 68 4 2.0 3.0 0.00 0.00 0.00 64 1011.2
20190523223318 68 4 2.0 3.0 0.00 0.00 0.00 64 1011.1
20190523222818 67 4 2.0 3.0 0.00 0.00 0.00 65 1011.1
20190523222317 67 4 2.0 3.0 0.00 0.00 0.00 66 1011.1
20190523221818 66 0 1.0 3.0 0.00 0.00 0.00 68 1011.1
20190523221317 65 359 2.0 3.0 0.00 0.00 0.00 67 1011.0
20190523220817 65 344 1.0 3.0 0.00 0.00 0.00 69 1011.1
20190523220317 64 331 1.0 3.0 0.00 0.00 0.00 70 1011.0
20190523215817 64 358 3.0 5.0 0.00 0.00 0.00 70 1011.0
20190523215220 64 355 3.0 3.0 0.00 0.00 0.00 69 1010.9
20190523214719 63 48 2.0 3.0 0.00 0.00 0.00 71 1010.9
20190523214219 63 48 3.0 5.0 0.00 0.00 0.00 71 1010.9
20190523213719 63 48 2.0 3.0 0.00 0.00 0.00 73 1010.8
20190523213221 62 48 2.0 3.0 0.00 0.00 0.00 74 1010.7
20190523212720 62 48 2.0 2.0 0.00 0.00 0.00 75 1010.7
20190523212220 62 48 2.0 3.0 0.00 0.00 0.00 74 1010.7
20190523211721 62 48 2.0 3.0 0.00 0.00 0.00 74 1010.6
20190523211220 62 48 1.0 2.0 0.00 0.00 0.00 74 1010.6
20190523210720 61 48 1.0 2.0 0.00 0.00 0.00 73 1010.5
20190523210220 61 48 1.0 2.0 0.00 0.00 0.00 74 1010.5
20190523205720 61 48 1.0 2.0 0.00 0.00 0.00 75 1010.5
20190523205220 60 48 1.0 1.0 0.00 0.00 0.00 76 1010.4
20190523204719 60 48 1.0 1.0 0.00 0.00 0.00 77 1010.4
20190523204220 60 48 1.0 3.0 0.00 0.00 0.00 78 1010.3
20190523203720 59 48 1.0 2.0 0.00 0.00 0.00 78 1010.3
20190523203221 59 48 1.0 2.0 0.00 0.00 0.00 79 1010.2
20190523202721 59 48 2.0 3.0 0.00 0.00 0.00 79 1010.2
20190523202221 59 48 2.0 3.0 0.00 0.00 0.00 79 1010.2
20190523201720 59 48 2.0 3.0 0.00 0.00 0.00 80 1010.2
20190523201220 58 48 2.0 3.0 0.00 0.00 0.00 80 1010.1
20190523200719 58 48 2.0 3.0 0.00 0.00 0.00 80 1010.0
20190523200221 58 48 2.0 2.0 0.00 0.00 0.00 80 1010.0
20190523195721 58 48 2.0 3.0 0.00 0.00 0.00 80 1009.9
20190523195221 58 48 1.0 2.0 0.00 0.00 0.00 80 1009.9
20190523194720 58 48 0.0 0.0 0.00 0.00 0.00 80 1010.0
20190523194220 58 48 1.0 2.0 0.00 0.00 0.00 80 1009.8
20190523193720 58 48 1.0 2.0 0.00 0.00 0.00 80 1009.8
20190523193220 58 48 1.0 2.0 0.00 0.00 0.00 80 1009.8
20190523192720 58 48 2.0 3.0 0.00 0.00 0.00 80 1009.7
20190523192221 58 48 2.0 3.0 0.00 0.00 0.00 80 1009.8
20190523191720 58 48 3.0 3.0 0.00 0.00 0.00 80 1009.8
20190523191220 59 48 1.0 3.0 0.00 0.00 0.00 80 1009.7
20190523190719 59 48 1.0 2.0 0.00 0.00 0.00 80 1009.6
20190523190221 59 48 1.0 3.0 0.00 0.00 0.00 80 1009.6
20190523185721 59 48 1.0 3.0 0.00 0.00 0.00 80 1009.6
20190523185221 59 48 2.0 3.0 0.00 0.00 0.00 80 1009.6
20190523184721 59 48 2.0 3.0 0.00 0.00 0.00 81 1009.6
20190523184220 59 48 2.0 3.0 0.00 0.00 0.00 81 1009.5
20190523183720 59 48 2.0 2.0 0.00 0.00 0.00 81 1009.5
20190523183221 59 48 1.0 2.0 0.00 0.00 0.00 81 1009.5
20190523182721 59 48 2.0 3.0 0.00 0.00 0.00 82 1009.6
20190523182221 59 48 2.0 3.0 0.00 0.00 0.00 82 1009.6
20190523181721 59 48 2.0 3.0 0.00 0.00 0.00 81 1009.6
20190523181220 59 48 1.0 2.0 0.00 0.00 0.00 81 1009.5
20190523180720 59 48 1.0 2.0 0.00 0.00 0.00 80 1009.5
20190523180220 59 48 1.0 2.0 0.00 0.00 0.00 80 1009.4
20190523175720 59 48 1.0 3.0 0.00 0.00 0.00 80 1009.4
20190523175220 59 48 1.0 2.0 0.00 0.00 0.00 80 1009.4
20190523174720 59 48 0.0 2.0 0.00 0.00 0.00 81 1009.4
20190523174220 59 48 0.0 1.0 0.00 0.00 0.00 81 1009.4
20190523173720 59 48 1.0 1.0 0.00 0.00 0.00 81 1009.4
20190523173220 60 48 1.0 2.0 0.00 0.00 0.00 81 1009.4
20190523172720 60 48 1.0 2.0 0.00 0.00 0.00 81 1009.5
20190523172220 60 48 1.0 2.0 0.00 0.00 0.00 81 1009.6
20190523171720 60 48 1.0 2.0 0.00 0.00 0.00 80 1009.6
20190523171219 60 48 1.0 2.0 0.00 0.00 0.00 80 1009.5
20190523170719 60 48 1.0 2.0 0.00 0.00 0.00 80 1009.5
20190523170221 60 48 2.0 3.0 0.00 0.00 0.00 80 1009.5
20190523165721 60 48 0.0 1.0 0.00 0.00 0.00 80 1009.5
20190523165220 60 48 0.0 1.0 0.00 0.00 0.00 81 1009.5
20190523164720 60 48 0.0 1.0 0.00 0.00 0.00 81 1009.5
20190523164219 60 48 0.0 0.0 0.00 0.00 0.00 81 1009.5
20190523163719 60 48 0.0 1.0 0.00 0.00 0.00 81 1009.6
20190523163219 60 48 1.0 2.0 0.00 0.00 0.00 80 1009.6
20190523162722 61 48 1.0 1.0 0.00 0.00 0.00 80 1009.5
20190523162221 61 48 1.0 2.0 0.00 0.00 0.00 79 1009.5
20190523161721 61 48 1.0 2.0 0.00 0.00 0.00 80 1009.6
20190523161220 61 48 1.0 2.0 0.00 0.00 0.00 80 1009.5
20190523160720 61 48 0.0 2.0 0.00 0.00 0.00 79 1009.5
20190523160219 61 48 1.0 2.0 0.00 0.00 0.00 79 1009.5
20190523155721 61 48 1.0 2.0 0.00 0.00 0.00 79 1009.6
20190523155221 61 48 1.0 3.0 0.00 0.00 0.00 79 1009.5
20190523154721 61 48 2.0 3.0 0.00 0.00 0.00 78 1009.5
20190523154221 61 48 2.0 3.0 0.00 0.00 0.00 78 1009.6
20190523153720 61 48 2.0 3.0 0.00 0.00 0.00 79 1009.6
20190523153220 61 48 2.0 3.0 0.00 0.00 0.00 79 1009.6
20190523152721 61 48 1.0 3.0 0.00 0.00 0.00 79 1009.7
20190523152221 61 48 2.0 3.0 0.00 0.00 0.00 79 1009.7
20190523151721 62 48 1.0 2.0 0.00 0.00 0.00 78 1009.7
20190523151221 62 48 1.0 2.0 0.00 0.00 0.00 77 1009.6
20190523150720 62 48 1.0 2.0 0.00 0.00 0.00 76 1009.6
20190523150220 62 48 1.0 2.0 0.00 0.00 0.00 75 1009.7
20190523145720 62 48 1.0 3.0 0.00 0.00 0.00 75 1009.7
20190523145220 63 50 2.0 3.0 0.00 0.00 0.00 74 1009.7
20190523144721 63 52 2.0 3.0 0.00 0.00 0.00 75 1009.8
20190523144221 63 53 1.0 2.0 0.00 0.00 0.00 74 1009.8
20190523143720 63 59 3.0 5.0 0.00 0.00 0.00 74 1009.7
20190523143220 63 32 1.0 2.0 0.00 0.00 0.00 73 1009.8
20190523142720 63 29 1.0 3.0 0.00 0.00 0.00 73 1009.8
20190523142220 63 28 2.0 3.0 0.00 0.00 0.00 73 1009.8
20190523141720 63 26 1.0 2.0 0.00 0.00 0.00 74 1009.8
20190523141219 64 27 1.0 3.0 0.00 0.00 0.00 74 1009.7
20190523140719 64 27 2.0 3.0 0.00 0.00 0.00 73 1009.7
20190523140219 64 29 2.0 3.0 0.00 0.00 0.00 74 1009.7
20190523135721 64 30 2.0 3.0 0.00 0.00 0.00 73 1009.7
20190523135221 64 27 1.0 2.0 0.00 0.00 0.00 73 1009.7
20190523134721 64 29 2.0 3.0 0.00 0.00 0.00 72 1009.7
20190523134220 65 29 1.0 3.0 0.00 0.00 0.00 71 1009.8
20190523133720 65 30 1.0 3.0 0.00 0.00 0.00 71 1009.7
20190523133220 65 30 2.0 3.0 0.00 0.00 0.00 70 1009.7
20190523132456 65 36 2.0 3.0 0.00 0.00 0.00 69 1009.7
20190523131957 65 29 2.0 5.0 0.00 0.00 0.00 69 1009.7
20190523131457 66 25 1.0 2.0 0.00 0.00 0.00 69 1009.8
20190523130956 66 28 1.0 3.0 0.00 0.00 0.00 68 1009.8
20190523130456 66 282 1.0 3.0 0.00 0.00 0.00 69 1009.8
20190523125956 66 273 1.0 2.0 0.00 0.00 0.00 71 1009.7
20190523125456 66 273 0.0 1.0 0.00 0.00 0.00 74 1009.7
20190523124956 67 273 0.0 1.0 0.00 0.00 0.00 75 1009.7
20190523124457 67 273 1.0 2.0 0.00 0.00 0.00 74 1009.7
20190523123956 68 273 1.0 2.0 0.00 0.00 0.00 74 1009.7
20190523123456 68 242 1.0 2.0 0.00 0.00 0.00 78 1009.7
20190523122956 69 242 1.0 1.0 0.00 0.00 0.00 77 1009.6
20190523122456 69 242 0.0 1.0 0.00 0.00 0.00 76 1009.6
20190523121956 69 242 0.0 0.0 0.00 0.00 0.00 76 1009.7
20190523121456 69 242 0.0 0.0 0.00 0.00 0.00 75 1009.6
20190523120955 69 242 0.0 0.0 0.00 0.00 0.00 75 1009.6
20190523120455 69 242 0.0 0.0 0.00 0.00 0.00 75 1009.6
20190523115957 69 242 0.0 0.0 0.00 0.00 0.00 75 1009.5
20190523115456 69 242 0.0 1.0 0.00 0.00 0.00 75 1009.5
20190523114956 69 242 0.0 0.0 0.00 0.00 0.00 75 1009.5
20190523114456 69 242 0.0 1.0 0.00 0.00 0.00 75 1009.5
20190523113955 69 242 1.0 1.0 0.00 0.00 0.00 75 1009.4
20190523113455 69 242 1.0 2.0 0.00 0.00 0.00 74 1009.3
20190523112955 69 242 1.0 2.0 0.00 0.00 0.00 75 1009.2
20190523112457 69 242 1.0 2.0 0.00 0.00 0.00 74 1009.3
20190523111957 69 242 1.0 2.0 0.00 0.00 0.00 74 1009.2
20190523111456 69 242 1.0 2.0 0.00 0.00 0.00 74 1009.1
20190523110955 69 242 1.0 2.0 0.00 0.00 0.00 73 1009.1
20190523110456 70 242 1.0 2.0 0.00 0.00 0.00 74 1009.0
20190523105956 70 242 1.0 1.0 0.00 0.00 0.00 74 1008.9
20190523105456 70 242 0.0 1.0 0.00 0.00 0.00 73 1008.9
20190523104956 70 242 0.0 1.0 0.00 0.00 0.00 72 1008.8
20190523104456 70 242 1.0 1.0 0.00 0.00 0.00 71 1008.7
20190523103957 70 242 1.0 1.0 0.00 0.00 0.00 71 1008.6
20190523103455 70 242 2.0 3.0 0.00 0.00 0.00 70 1008.6
20190523102955 70 241 2.0 3.0 0.00 0.00 0.00 69 1008.5
20190523102457 70 239 2.0 3.0 0.00 0.00 0.00 68 1008.5
20190523101957 70 241 2.0 3.0 0.00 0.00 0.00 67 1008.6
20190523101457 71 240 2.0 3.0 0.00 0.00 0.00 66 1008.5
20190523100957 71 243 2.0 3.0 0.00 0.00 0.00 65 1008.6
20190523100456 71 240 3.0 5.0 0.00 0.00 0.00 65 1008.5
20190523095956 71 233 3.0 3.0 0.00 0.00 0.00 64 1008.5
20190523095456 71 224 3.0 3.0 0.00 0.00 0.00 62 1008.4
20190523094956 72 230 3.0 3.0 0.00 0.00 0.00 61 1008.4
20190523094456 72 224 2.0 3.0 0.00 0.00 0.00 60 1008.3
20190523094005 72 233 3.0 6.0 0.00 0.00 0.00 60 1008.3
20190523093455 72 233 5.0 7.0 0.00 0.00 0.00 58 1008.3
20190523092955 73 223 2.0 5.0 0.00 0.00 0.00 57 1008.2
20190523092456 73 221 3.0 5.0 0.00 0.00 0.00 55 1008.2
20190523091956 73 220 3.0 3.0 0.00 0.00 0.00 56 1008.2
20190523091457 73 223 3.0 5.0 0.00 0.00 0.00 54 1008.2
20190523090957 74 218 5.0 5.0 0.00 0.00 0.00 50 1008.1
20190523090456 74 213 2.0 3.0 0.00 0.00 0.00 49 1008.0
20190523085957 74 209 1.0 3.0 0.00 0.00 0.00 50 1008.0
20190523085456 74 211 3.0 5.0 0.00 0.00 0.00 53 1008.1
20190523084956 74 218 5.0 5.0 0.00 0.00 0.00 53 1008.0